sat.trackr.live / text

‹ back to catalog

STARLINK-5311

NORAD 55288 · 2023-010V

PAYLOAD ACTIVE UNKNOWN

§ Identity

Operator
Country
US
Launch date
2023-01-19
Launch site
AFWTR
Launch vehicle
Mass (kg)
RCS (m²)

Purposes: comms

External: N2YO · Heavens-Above · Gunter

§ Orbital elements

Epoch: 2026-05-25T03:46:40.789920Z

Period
96.11 min
Inclination
69.9985°
Eccentricity
0.0003699
Mean motion
14.98331487 rev/d
Perigee alt
569.5 km
Apogee alt
574.6 km
Semi-major
6,950.2 km
B*
2.3809e-5
RAAN
191.6367°
Arg perigee
267.0766°
Mean anomaly
92.9970°
Rev number
18,472

§ Raw data

STARLINK-53111 55288U 23010V   26145.15741655  .00000191  00000+0  23809-4 0  99922 55288  69.9985 191.6367 0003699 267.0766  92.9970 14.98331487184726

JSON: /api/v1/satellites/55288 · /tle

For live sub-satellite position, see the globe view (requires WebGL).

§ Visibility from observer

Set your observer location to see the next 7 days of passes ≥ 10°. The values pass through the URL so the page stays shareable.

No JS? Fill the form by hand. The geolocation button needs JavaScript.